1501351200.93,37817,22.25,74380.3,5.75,-22.27,-22.77,0,*75
1501351202.17,37818,22.25,74382.0,5.77,-22.21,-22.57,0,*7C
1501351203.37,37819,22.25,74382.0,5.75,-22.27,-22.63,0,*7E
1501351204.59,37820,22.25,74380.5,5.75,-22.11,-22.47,0,*77
1501351205.82,37821,22.25,74384.3,5.75,-22.17,-22.57,0,*71
1501351207.05,37822,22.25,74382.8,5.75,-22.17,-22.63,0,*75
1501351208.27,37823,22.25,74376.3,5.75,-22.31,-22.63,0,*70
1501351209.47,37824,22.25,74376.5,5.75,-22.27,-22.63,0,*70
1501351210.71,37825,22.25,74374.0,5.77,-22.21,-22.53,0,*76
1501351211.9,37826,22.25,74380.3,5.75,-22.11,-22.41,0,*77
1501351213.12,37827,22.25,74384.8,5.75,-22.11,-22.47,0,*70
1501351214.35,37828,22.25,74380.8,5.75,-22.31,-22.63,0,*7B
1501351215.54,37829,22.25,74380.0,5.75,-22.41,-22.63,0,*7D
1501351216.78,37830,22.25,74382.5,5.73,-22.31,-22.57,0,*73
1501351218.04,37831,22.25,74380.8,5.75,-22.17,-22.47,0,*71
1501351219.26,37832,22.25,74382.0,5.75,-22.31,-22.57,0,*77
1501351220.52,37833,22.25,74380.3,5.75,-22.17,-22.47,0,*73
1501351221.74,37834,22.25,74382.3,5.75,-22.17,-22.57,0,*75
1501351222.96,37835,22.25,74380.8,5.75,-22.31,-22.63,0,*77
1501351224.19,37836,22.25,74378.5,5.75,-22.31,-22.63,0,*74
1501351225.44,37837,22.25,74376.5,5.75,-22.47,-22.77,0,*71
1501351226.68,37838,22.25,74374.5,5.73,-22.41,-22.77,0,*7E
1501351227.92,37839,22.25,74372.0,5.73,-22.31,-22.67,0,*79
1501351229.17,37840,22.25,74378.8,5.75,-22.47,-22.77,0,*71
1501351230.37,37841,22.25,74382.0,5.75,-22.27,-22.63,0,*73
1501351231.61,37842,22.25,74380.0,5.73,-22.31,-22.63,0,*71
1501351232.81,37843,22.25,74382.5,5.75,-22.11,-22.57,0,*73
1501351234.02,37844,22.25,74376.8,5.73,-22.27,-22.67,0,*74
1501351235.27,37845,22.25,74376.5,5.73,-22.27,-22.77,0,*74
1501351236.54,37846,22.25,74372.5,5.73,-22.47,-22.77,0,*71
1501351237.76,37847,22.25,74372.5,5.73,-22.27,-22.57,0,*74
1501351239.03,37848,22.25,74376.5,5.73,-22.31,-22.77,0,*7E
1501351240.25,37849,22.25,74384.3,5.73,-22.27,-22.57,0,*7A
1501351241.49,37850,22.25,74388.0,5.73,-22.31,-22.57,0,*75
1501351242.76,37851,22.25,74382.8,5.73,-22.31,-22.77,0,*76
1501351244.0,37852,22.25,74380.5,5.73,-22.31,-22.67,0,*74
1501351245.25,37853,22.25,74380.0,5.73,-22.31,-22.63,0,*71
1501351246.5,37854,22.25,74378.8,5.73,-22.17,-22.57,0,*75
1501351247.72,37855,22.25,74380.5,5.73,-22.27,-22.63,0,*70
1501351248.94,37856,22.25,74378.3,5.71,-22.21,-22.53,0,*74
1501351250.19,37857,22.25,74380.0,5.71,-22.17,-22.47,0,*75
1501351251.4,37858,22.25,74376.0,5.73,-22.03,-22.41,0,*7B
1501351252.64,37859,22.25,74378.3,5.75,-21.97,-22.31,0,*75
1501351253.89,37860,22.25,74378.0,5.75,-21.87,-22.31,0,*7E
1501351255.14,37861,22.25,74374.8,5.75,-21.97,-22.31,0,*7E
1501351256.39,37862,22.25,74374.3,5.75,-21.87,-22.31,0,*7C
1501351257.61,37863,22.25,74376.8,5.77,-21.93,-22.27,0,*7D
1501351258.83,37864,22.25,74374.0,5.75,-22.11,-22.47,0,*77
1501351260.04,37865,22.25,74378.0,5.73,-22.03,-22.41,0,*75
1501351261.28,37866,22.25,74374.3,5.73,-21.97,-22.41,0,*78
1501351262.49,37867,22.25,74376.3,5.73,-22.03,-22.41,0,*77
1501351263.71,37868,22.25,74372.5,5.75,-21.97,-22.27,0,*70
1501351264.93,37869,22.25,74376.0,5.75,-22.03,-22.47,0,*79
1501351266.17,37870,22.25,74376.5,5.77,-21.83,-22.27,0,*7E
1501351267.39,37871,22.25,74374.8,5.75,-22.03,-22.47,0,*70
1501351268.61,37872,22.25,74376.0,5.75,-21.83,-22.27,0,*7E
1501351269.89,37873,22.25,74374.5,5.73,-21.87,-22.17,0,*7E
1501351271.14,37874,22.25,74374.3,5.75,-21.87,-22.31,0,*7B
1501351272.36,37875,22.25,74374.3,5.77,-22.37,-22.57,0,*70
1501351273.56,37876,22.25,74378.0,5.75,-22.41,-22.63,0,*77
1501351274.77,37877,22.25,74376.0,5.77,-22.27,-22.67,0,*70
1501351275.97,37878,22.25,74376.0,5.75,-22.41,-22.67,0,*7D
1501351277.19,37879,22.25,74376.5,5.75,-22.31,-22.63,0,*7F
1501351278.41,37880,22.25,74372.5,5.75,-22.47,-22.67,0,*7C
1501351279.61,37881,22.25,74372.3,5.75,-22.57,-22.83,0,*76
1501351280.86,37882,22.25,74370.3,5.75,-22.47,-22.77,0,*7F
1501351282.11,37883,22.25,74370.0,5.73,-22.47,-22.83,0,*73
1501351283.32,37884,22.25,74374.8,5.73,-22.41,-22.67,0,*78
1501351284.57,37885,22.25,74376.0,5.73,-22.47,-22.67,0,*7F
1501351285.78,37886,22.25,74376.8,5.73,-22.41,-22.67,0,*7A
1501351287.03,37887,22.25,74378.8,5.73,-22.47,-22.67,0,*7D
1501351288.27,37888,22.25,74376.8,5.71,-22.47,-22.73,0,*75
1501351289.52,37889,22.25,74376.8,5.73,-22.31,-22.63,0,*76
1501351290.73,37890,22.25,74380.8,5.71,-22.41,-22.77,0,*7E
1501351291.95,37891,22.25,74380.0,5.73,-22.41,-22.67,0,*7C
1501351293.19,37892,22.25,74378.3,5.73,-22.31,-22.63,0,*7C
1501351294.41,37893,22.25,74378.8,5.71,-22.41,-22.77,0,*7D
1501351295.63,37894,22.25,74382.8,5.71,-22.47,-22.67,0,*7D
1501351296.87,37895,22.25,74376.3,5.73,-22.31,-22.63,0,*7B
1501351298.09,37896,22.25,74378.8,5.71,-22.37,-22.73,0,*7D
1501351299.31,37897,22.25,74378.3,5.73,-22.27,-22.57,0,*79
1501351300.56,37898,22.25,74380.0,5.71,-22.17,-22.47,0,*76
1501351301.84,37899,22.25,74380.5,5.73,-22.17,-22.47,0,*75
1501351303.03,37900,22.25,74376.5,5.71,-22.37,-22.67,0,*76
1501351304.25,37901,22.25,74376.0,5.71,-22.31,-22.63,0,*75
1501351305.46,37902,22.25,74374.8,5.71,-22.31,-22.67,0,*72
1501351306.66,37903,22.25,74372.5,5.71,-22.53,-22.83,0,*7D
1501351307.85,37904,22.25,74374.0,5.71,-22.63,-22.83,0,*79
1501351309.12,37905,22.25,74374.3,5.73,-22.47,-22.77,0,*77
1501351310.31,37906,22.25,74378.3,5.71,-22.63,-22.97,0,*7E
1501351311.5,37907,22.25,74376.5,5.71,-22.63,-22.87,0,*7E
1501351312.77,37908,22.25,74382.0,5.73,-22.47,-22.77,0,*7A
1501351313.97,37909,22.25,74378.5,5.71,-22.53,-22.87,0,*73
1501351315.16,37910,22.25,74378.0,5.71,-22.63,-22.87,0,*78
1501351316.4,37911,22.25,74378.3,5.71,-22.47,-22.73,0,*74
1501351317.62,37912,22.25,74378.5,5.71,-22.53,-22.73,0,*72
1501351318.81,37913,22.25,74376.5,5.71,-22.53,-22.83,0,*7C
1501351320.03,37914,22.25,74378.5,5.71,-22.47,-22.83,0,*7E
1501351321.3,37915,22.25,74376.3,5.69,-22.47,-22.73,0,*79
1501351322.55,37916,22.25,74380.0,5.69,-22.47,-22.83,0,*75
1501351323.79,37917,22.25,74378.8,5.69,-22.31,-22.67,0,*7F
1501351325.03,37918,22.25,74378.8,5.69,-22.37,-22.73,0,*73
1501351326.29,37919,22.25,74376.8,5.69,-22.31,-22.73,0,*74
1501351327.53,37920,22.25,74380.5,5.69,-22.31,-22.67,0,*7B
1501351328.78,37921,22.25,74376.0,5.69,-22.21,-22.53,0,*7C
1501351330.0,37922,22.25,74380.3,5.67,-22.27,-22.73,0,*75
1501351331.21,37923,22.25,74378.5,5.67,-22.21,-22.67,0,*77
1501351332.43,37924,22.25,74376.5,5.67,-22.21,-22.67,0,*70
1501351333.68,37925,22.25,74374.8,5.69,-22.21,-22.67,0,*7F
1501351334.92,37926,22.25,74376.5,5.69,-22.21,-22.67,0,*7C
1501351336.15,37927,22.25,74376.5,5.67,-22.53,-22.77,0,*77
1501351337.39,37928,22.25,74376.0,5.69,-22.31,-22.67,0,*73
1501351338.61,37929,22.25,74374.8,5.69,-22.37,-22.63,0,*70
1501351339.83,37930,22.25,74372.3,5.67,-22.53,-22.73,0,*75
1501351341.05,37931,22.25,74376.5,5.67,-22.57,-22.77,0,*74
1501351342.3,37932,22.25,74374.0,5.69,-22.47,-22.83,0,*73
1501351343.52,37933,22.25,74376.0,5.69,-22.53,-22.87,0,*73
1501351344.72,37934,22.25,74378.5,5.67,-22.53,-22.87,0,*7A
1501351345.95,37935,22.25,74376.0,5.67,-22.53,-22.77,0,*74
1501351347.14,37936,22.25,74374.5,5.67,-22.37,-22.57,0,*77
1501351348.36,37937,22.25,74378.3,5.67,-22.41,-22.77,0,*75
1501351349.58,37938,22.25,74378.0,5.67,-22.37,-22.73,0,*7F
1501351350.8,37939,22.25,74378.0,5.67,-22.41,-22.73,0,*7F
1501351352.02,37940,22.25,74378.0,5.67,-22.57,-22.77,0,*72
1501351353.22,37941,22.25,74376.3,5.67,-22.27,-22.67,0,*75
1501351354.43,37942,22.25,74378.5,5.67,-21.93,-22.21,0,*78
1501351355.63,37943,22.25,74376.5,5.67,-21.73,-21.93,0,*7D
1501351356.85,37944,22.25,74382.3,5.69,-21.77,-22.07,0,*7E
1501351358.07,37945,22.25,74380.8,5.67,-21.47,-21.83,0,*7D
1501351359.29,37946,22.25,74380.8,5.67,-21.73,-21.97,0,*7C
1501351360.51,37947,22.25,74380.3,5.69,-21.77,-22.07,0,*7D
1501351361.75,37948,22.25,74378.5,5.69,-21.93,-22.21,0,*7C
1501351363.02,37949,22.25,74378.5,5.69,-21.87,-22.31,0,*79
1501351364.3,37950,22.25,74380.8,5.69,-21.67,-21.87,0,*71
1501351365.52,37951,22.25,74384.3,5.69,-21.77,-22.03,0,*7E
1501351366.76,37952,22.25,74382.8,5.71,-21.87,-22.21,0,*7B
1501351367.98,37953,22.25,74380.3,5.71,-21.93,-22.21,0,*7F
1501351369.17,37954,22.25,74378.5,5.71,-21.93,-22.37,0,*7F
1501351370.38,37955,22.25,74372.5,5.71,-22.03,-22.31,0,*72
1501351371.63,37956,22.25,74378.0,5.73,-21.87,-22.27,0,*7B
1501351372.85,37957,22.25,74376.5,5.71,-22.03,-22.31,0,*70
1501351374.11,37958,22.25,74374.0,5.73,-21.83,-22.21,0,*77
1501351375.36,37959,22.25,74378.5,5.73,-21.87,-22.27,0,*74
1501351376.58,37960,22.25,74376.5,5.71,-21.93,-22.31,0,*7E
1501351377.83,37961,22.25,74368.8,5.73,-22.03,-22.31,0,*77
1501351379.07,37962,22.25,74364.0,5.73,-22.11,-22.31,0,*77
1501351380.31,37963,22.25,74364.3,5.73,-22.31,-22.63,0,*73
1501351381.56,37964,22.25,74368.0,5.73,-22.31,-22.63,0,*74
1501351382.75,37965,22.25,74370.0,5.71,-22.27,-22.57,0,*77
1501351383.97,37966,22.25,74378.0,5.73,-22.27,-22.63,0,*71
1501351385.16,37967,22.25,74374.0,5.71,-22.37,-22.67,0,*77
1501351386.44,37968,22.25,74376.0,5.73,-22.47,-22.77,0,*7C
1501351387.66,37969,22.25,74376.8,5.73,-22.57,-22.83,0,*77
1501351388.85,37970,22.25,74376.0,5.71,-22.67,-22.97,0,*7B
1501351390.07,37971,22.25,74372.5,5.73,-22.63,-22.83,0,*79
1501351391.26,37972,22.25,74376.5,5.71,-22.67,-22.97,0,*79
1501351392.45,37973,22.25,74378.8,5.71,-22.63,-22.87,0,*7D
1501351393.66,37974,22.25,74380.3,5.71,-22.67,-23.03,0,*73
1501351394.85,37975,22.25,74378.5,5.71,-22.63,-22.97,0,*7A
1501351396.04,37976,22.25,74374.8,5.71,-22.63,-22.87,0,*78
1501351397.24,37977,22.25,74372.5,5.71,-22.53,-22.87,0,*7A
1501351398.44,37978,22.25,74376.3,5.71,-22.53,-22.87,0,*75
1501351399.68,37979,22.25,74380.0,5.71,-22.47,-22.73,0,*7A
1501351400.87,37980,22.25,74376.8,5.71,-22.63,-22.83,0,*75
1501351402.05,37981,22.25,74376.0,5.71,-22.67,-22.87,0,*74
1501351403.27,37982,22.25,74378.5,5.69,-22.63,-22.87,0,*7A
1501351404.49,37983,22.25,74380.3,5.69,-22.53,-22.87,0,*78
1501351405.75,37984,22.25,74380.8,5.69,-22.31,-22.73,0,*70
1501351406.98,37985,22.25,74380.0,5.67,-22.57,-22.77,0,*7B
1501351408.19,37986,22.25,74380.0,5.67,-22.41,-22.73,0,*7B
1501351409.39,37987,22.25,74384.3,5.67,-22.67,-22.87,0,*75
1501351410.61,37988,22.25,74384.5,5.69,-22.53,-22.83,0,*77
1501351411.83,37989,22.25,74382.8,5.67,-22.53,-22.77,0,*73
1501351413.06,37990,22.25,74382.3,5.67,-22.53,-22.77,0,*7B
1501351414.26,37991,22.25,74380.3,5.67,-22.57,-22.93,0,*74
1501351415.48,37992,22.25,74382.5,5.67,-22.41,-22.73,0,*7E
1501351416.69,37993,22.25,74380.3,5.69,-22.63,-22.83,0,*7E
1501351417.88,37994,22.25,74380.0,5.67,-22.67,-22.87,0,*77
1501351419.09,37995,22.25,74380.3,5.67,-22.57,-22.93,0,*70
1501351420.29,37996,22.25,74380.0,5.67,-22.57,-22.93,0,*73
1501351421.51,37997,22.25,74382.5,5.67,-22.73,-22.93,0,*74
1501351422.71,37998,22.25,74376.0,5.67,-22.67,-22.93,0,*7E
1501351423.92,37999,22.25,74382.3,5.61,-22.63,-22.97,0,*79
1501351425.12,38000,22.25,74382.5,5.63,-22.63,-22.97,0,*7D
1501351426.31,38001,22.25,74386.5,5.63,-22.63,-22.93,0,*78
1501351427.54,38002,22.25,74382.8,5.61,-22.57,-22.93,0,*7E
1501351428.76,38003,22.25,74382.3,5.61,-22.57,-22.83,0,*7E
1501351429.96,38004,22.25,74382.5,5.63,-22.57,-22.93,0,*7A
1501351431.21,38005,22.25,74380.3,5.61,-22.57,-22.77,0,*73
1501351432.46,38006,22.25,74384.5,5.61,-22.47,-22.83,0,*7A
1501351433.66,38007,22.25,74384.3,5.63,-22.57,-22.83,0,*78
1501351434.9,38008,22.25,74384.3,5.61,-22.31,-22.63,0,*7B
1501351436.11,38009,22.25,74378.3,5.61,-22.03,-22.41,0,*7B
1501351437.36,38010,22.25,74382.8,5.63,-21.87,-22.31,0,*79
1501351438.58,38011,22.25,74378.5,5.63,-21.97,-22.41,0,*7E
1501351439.78,38012,22.25,74376.3,5.61,-22.03,-22.41,0,*71
1501351441.04,38013,22.25,74376.5,5.63,-22.17,-22.47,0,*71
1501351442.28,38014,22.25,74378.3,5.61,-22.31,-22.57,0,*71
1501351443.48,38015,22.25,74376.0,5.63,-22.41,-22.63,0,*72
1501351444.75,38016,22.25,74382.0,5.61,-22.47,-22.77,0,*70
1501351445.99,38017,22.25,74382.0,5.61,-22.41,-22.73,0,*73
1501351447.24,38018,22.25,74376.3,5.61,-22.27,-22.47,0,*7B
1501351448.42,38019,22.25,74376.3,5.63,-22.03,-22.41,0,*78
1501351449.65,38020,22.25,74372.8,5.63,-22.11,-22.47,0,*77
1501351450.87,38021,22.25,74378.8,5.63,-22.31,-22.63,0,*72
1501351452.09,38022,22.25,74378.3,5.63,-22.31,-22.63,0,*71
1501351453.34,38023,22.25,74376.8,5.61,-22.31,-22.63,0,*72
1501351454.58,38024,22.25,74376.5,5.61,-22.31,-22.57,0,*72
1501351455.8,38025,22.25,74374.0,5.61,-22.27,-22.63,0,*73
1501351457.02,38026,22.25,74380.3,5.63,-22.31,-22.57,0,*72
1501351458.22,38027,22.25,74378.0,5.63,-22.27,-22.63,0,*73
1501351459.46,38028,22.25,74378.3,5.63,-22.31,-22.73,0,*7A
1501351460.7,38029,22.25,74380.5,5.61,-22.27,-22.73,0,*7E
1501351461.92,38030,22.25,74382.3,5.61,-22.27,-22.57,0,*70
1501351463.19,38031,22.25,74382.3,5.61,-21.97,-22.31,0,*79
1501351464.44,38032,22.25,74382.0,5.63,-21.87,-22.17,0,*7D
1501351465.69,38033,22.25,74382.0,5.61,-21.53,-21.77,0,*72
1501351466.94,38034,22.25,74380.8,5.63,-21.23,-21.53,0,*76
1501351468.16,38035,22.25,74376.8,5.67,-21.27,-21.47,0,*72
1501351469.4,38036,22.25,74382.0,5.67,-21.33,-21.57,0,*75
1501351470.62,38037,22.25,74380.5,5.67,-21.27,-21.47,0,*70
1501351471.84,38038,22.25,74380.5,5.67,-21.13,-21.33,0,*7B
1501351473.08,38039,22.25,74382.5,5.69,-21.09,-21.27,0,*7A
1501351474.29,38040,22.25,74384.8,5.69,-21.09,-21.43,0,*76
1501351475.48,38041,22.25,74382.3,5.71,-21.13,-21.43,0,*75
1501351476.7,38042,22.25,74382.5,5.71,-21.39,-21.67,0,*78
1501351477.94,38043,22.25,74376.0,5.71,-21.57,-21.87,0,*7F
1501351479.19,38044,22.25,74374.3,5.73,-21.67,-22.03,0,*76
1501351480.39,38045,22.25,74370.3,5.75,-21.73,-22.03,0,*74
1501351481.6,38046,22.25,74368.0,5.73,-21.73,-22.03,0,*71
1501351482.87,38047,22.25,74376.3,5.73,-21.97,-22.31,0,*7B
1501351484.12,38048,22.25,74372.5,5.75,-21.97,-22.31,0,*72
1501351485.36,38049,22.25,74374.5,5.73,-21.83,-22.11,0,*72
1501351486.61,38050,22.25,74376.5,5.75,-21.83,-22.17,0,*7A
1501351487.81,38051,22.25,74376.3,5.75,-21.93,-22.27,0,*79
1501351489.02,38052,22.19,74374.8,5.73,-22.03,-22.41,0,*76
1501351490.29,38053,22.25,74376.5,5.73,-21.97,-22.31,0,*7E
1501351491.54,38054,22.25,74382.5,5.73,-22.17,-22.53,0,*76
1501351492.78,38055,22.25,74376.3,5.73,-22.03,-22.31,0,*76
1501351493.96,38056,22.25,74376.8,5.71,-22.07,-22.37,0,*75
1501351495.2,38057,22.25,74378.3,5.73,-22.03,-22.31,0,*74
1501351496.42,38058,22.25,74376.3,5.75,-22.03,-22.31,0,*7D
1501351497.67,38059,22.25,74376.0,5.73,-22.31,-22.57,0,*7B
1501351498.95,38060,22.25,74376.0,5.73,-22.17,-22.47,0,*74
1501351500.17,38061,22.25,74378.5,5.73,-22.27,-22.63,0,*70
1501351501.41,38062,22.25,74378.3,5.73,-22.31,-22.57,0,*73
1501351502.63,38063,22.25,74382.8,5.71,-22.31,-22.63,0,*77
1501351503.84,38064,22.19,74378.0,5.73,-22.11,-22.41,0,*70
1501351505.09,38065,22.25,74374.5,5.71,-22.17,-22.47,0,*73
1501351506.3,38066,22.25,74374.3,5.73,-22.11,-22.41,0,*72
1501351507.51,38067,22.25,74372.8,5.73,-22.03,-22.41,0,*70
1501351508.72,38068,22.25,74372.3,5.73,-22.11,-22.41,0,*7C
1501351509.97,38069,22.25,74374.0,5.73,-22.27,-22.47,0,*7E
1501351511.24,38070,22.25,74376.8,5.73,-22.31,-22.77,0,*72
1501351512.49,38071,22.25,74372.0,5.71,-22.47,-22.73,0,*74
1501351513.7,38072,22.25,74376.3,5.71,-22.37,-22.73,0,*70
1501351514.92,38073,22.25,74374.8,5.71,-22.37,-22.73,0,*71
1501351516.11,38074,22.25,74374.3,5.71,-22.37,-22.63,0,*77
1501351517.33,38075,22.25,74370.3,5.71,-22.27,-22.47,0,*71
1501351518.55,38076,22.25,74374.0,5.71,-22.31,-22.53,0,*70
1501351519.77,38077,22.25,74374.0,5.71,-22.21,-22.53,0,*70
1501351520.99,38078,22.25,74374.5,5.71,-22.31,-22.67,0,*79
1501351522.2,38079,22.25,74372.0,5.71,-22.47,-22.67,0,*79
1501351523.43,38080,22.25,74378.5,5.71,-22.47,-22.83,0,*75
1501351524.64,38081,22.25,74376.5,5.71,-22.47,-22.83,0,*74
1501351525.86,38082,22.25,74372.5,5.71,-22.37,-22.73,0,*7F
1501351527.08,38083,22.25,74376.5,5.71,-22.31,-22.63,0,*79
1501351528.29,38084,22.25,74380.3,5.73,-22.41,-22.67,0,*7F
1501351529.54,38085,22.25,74386.0,5.71,-22.21,-22.47,0,*78
1501351530.77,38086,22.25,74388.3,5.71,-22.17,-22.53,0,*7B
1501351531.99,38087,22.25,74380.3,5.71,-21.93,-22.31,0,*71
1501351533.17,38088,22.25,74380.0,5.71,-22.03,-22.37,0,*72
1501351534.39,38089,22.19,74374.8,5.71,-21.93,-22.21,0,*7E
1501351535.58,38090,22.25,74382.0,5.71,-22.03,-22.37,0,*7B
1501351536.8,38091,22.25,74378.3,5.71,-22.17,-22.53,0,*7D
1501351538.02,38092,22.25,74376.5,5.71,-22.21,-22.53,0,*7B
1501351539.23,38093,22.25,74378.3,5.71,-22.31,-22.67,0,*7C
1501351540.43,38094,22.25,74378.3,5.71,-22.53,-22.83,0,*75
1501351541.63,38095,22.25,74376.8,5.71,-22.53,-22.83,0,*74
1501351542.82,38096,22.25,74378.5,5.71,-22.53,-22.87,0,*73
1501351544.04,38097,22.25,74378.3,5.71,-22.31,-22.63,0,*7C
1501351545.22,38098,22.25,74376.8,5.71,-22.07,-22.37,0,*77
1501351546.44,38099,22.25,74378.8,5.71,-22.07,-22.47,0,*71
1501351547.66,38100,22.25,74376.3,5.71,-22.21,-22.63,0,*72
1501351548.91,38101,22.25,74374.5,5.73,-22.17,-22.57,0,*73
1501351550.13,38102,22.25,74376.8,5.71,-22.31,-22.53,0,*72
1501351551.32,38103,22.25,74380.3,5.71,-22.37,-22.63,0,*76
1501351552.51,38104,22.25,74372.3,5.71,-22.37,-22.67,0,*75
1501351553.71,38105,22.25,74374.3,5.71,-22.53,-22.83,0,*7C
1501351554.9,38106,22.25,74374.0,5.71,-22.63,-22.87,0,*78
1501351556.08,38107,22.25,74376.0,5.71,-22.63,-22.87,0,*79
1501351557.33,38108,22.25,74376.5,5.69,-22.53,-22.73,0,*77
1501351558.55,38109,22.25,74376.8,5.69,-22.53,-22.83,0,*79
1501351559.76,38110,22.25,74380.8,5.69,-22.63,-22.83,0,*72
1501351560.98,38111,22.25,74380.3,5.69,-22.63,-22.87,0,*77
1501351562.2,38112,22.25,74384.5,5.69,-22.53,-22.83,0,*73
1501351563.47,38113,22.25,74378.5,5.69,-22.47,-22.73,0,*78
1501351564.74,38114,22.25,74374.8,5.69,-22.47,-22.73,0,*7F
1501351565.96,38115,22.25,74372.8,5.69,-22.53,-22.83,0,*74
1501351567.17,38116,22.25,74376.0,5.69,-22.63,-22.83,0,*74
1501351568.39,38117,22.25,74378.3,5.69,-22.67,-22.97,0,*74
1501351569.63,38118,22.25,74376.3,5.67,-22.73,-23.03,0,*7C
1501351570.85,38119,22.25,74376.0,5.69,-22.63,-22.83,0,*7B
1501351572.05,38120,22.25,74376.5,5.67,-22.53,-22.83,0,*7C
1501351573.26,38121,22.25,74374.0,5.69,-22.63,-22.87,0,*74
1501351574.47,38122,22.25,74372.5,5.69,-22.63,-22.87,0,*77
1501351575.69,38123,22.25,74380.0,5.67,-22.73,-22.93,0,*7C
1501351576.91,38124,22.25,74386.0,5.67,-22.67,-23.03,0,*76
1501351578.14,38125,22.25,74386.8,5.67,-22.57,-22.77,0,*76
1501351579.33,38126,22.25,74380.0,5.67,-22.37,-22.67,0,*72
1501351580.53,38127,22.25,74378.3,5.67,-22.37,-22.67,0,*73
1501351581.78,38128,22.25,74374.3,5.69,-22.53,-22.73,0,*75
1501351582.97,38129,22.25,74374.0,5.67,-22.57,-22.87,0,*75
1501351584.22,38130,22.25,74376.8,5.69,-22.53,-22.73,0,*7C
1501351585.42,38131,22.19,74376.5,5.67,-22.53,-22.87,0,*78
1501351586.66,38132,22.25,74382.8,5.67,-22.73,-23.03,0,*74
1501351587.9,38133,22.25,74382.8,5.67,-22.73,-23.03,0,*75
1501351589.16,38134,22.25,74382.3,5.67,-22.77,-23.19,0,*7D
1501351590.38,38135,22.25,74378.0,5.67,-22.73,-23.09,0,*79
1501351591.63,38136,22.25,74376.3,5.67,-22.77,-23.03,0,*74
1501351592.85,38137,22.25,74378.5,5.67,-22.77,-23.09,0,*7F
1501351594.08,38138,22.19,74372.5,5.63,-22.77,-23.13,0,*7F
1501351595.27,38139,22.19,74376.3,5.63,-22.83,-23.13,0,*75
1501351596.47,38140,22.19,74378.3,5.63,-22.83,-23.13,0,*7B
1501351597.71,38141,22.19,74378.3,5.61,-22.83,-23.23,0,*7B
1501351598.94,38142,22.25,74380.8,5.63,-22.77,-23.13,0,*72
1501351600.19,38143,22.25,74376.5,5.63,-22.77,-23.23,0,*70
1501351601.44,38144,22.25,74378.5,5.61,-22.77,-23.13,0,*76
1501351602.69,38145,22.19,74376.0,5.61,-22.77,-23.09,0,*7C
1501351603.94,38146,22.19,74378.3,5.61,-22.77,-23.09,0,*7F
1501351605.19,38147,22.25,74378.3,5.61,-22.77,-23.09,0,*7E
1501351606.44,38148,22.25,74378.0,5.61,-22.73,-22.93,0,*77
1501351607.65,38149,22.19,74372.0,5.61,-22.63,-22.93,0,*77
1501351608.91,38150,22.19,74374.8,5.61,-22.77,-22.97,0,*7E
1501351610.16,38151,22.19,74374.3,5.61,-22.77,-23.09,0,*79
1501351611.38,38152,22.19,74374.0,5.61,-22.83,-23.09,0,*71
1501351612.6,38153,22.19,74376.0,5.59,-22.87,-23.19,0,*7E
1501351613.82,38154,22.19,74376.8,5.59,-22.83,-23.03,0,*76
1501351615.05,38155,22.19,74378.5,5.59,-22.77,-23.13,0,*7D
1501351616.25,38156,22.19,74380.0,5.59,-22.67,-22.97,0,*72
1501351617.5,38157,22.19,74380.3,5.57,-22.77,-23.13,0,*71
1501351618.72,38158,22.19,74382.0,5.57,-22.63,-22.97,0,*76
1501351619.94,38159,22.19,74382.5,5.57,-22.63,-22.87,0,*76
1501351621.19,38160,22.19,74378.3,5.59,-22.47,-22.77,0,*7B
1501351622.4,38161,22.19,74374.3,5.59,-22.53,-22.97,0,*71
1501351623.6,38162,22.19,74376.0,5.59,-22.63,-22.97,0,*71
1501351624.82,38163,22.19,74376.5,5.57,-22.63,-22.97,0,*7E
1501351626.04,38164,22.19,74384.0,5.57,-22.67,-22.97,0,*7D
1501351627.24,38165,22.19,74382.8,5.59,-22.67,-22.97,0,*72
1501351628.47,38166,22.19,74380.3,5.57,-22.53,-22.87,0,*79
1501351629.71,38167,22.19,74378.3,5.57,-22.37,-22.77,0,*75
1501351630.96,38168,22.19,74376.3,5.57,-22.21,-22.63,0,*78
1501351632.21,38169,22.19,74378.0,5.57,-22.37,-22.77,0,*7B
1501351633.44,38170,22.19,74378.3,5.57,-22.53,-22.83,0,*7A
1501351634.66,38171,22.19,74378.0,5.57,-22.37,-22.67,0,*73
1501351635.91,38172,22.19,74378.5,5.57,-22.31,-22.53,0,*71
1501351637.16,38173,22.19,74378.5,5.57,-22.21,-22.63,0,*72
1501351638.38,38174,22.19,74376.8,5.59,-22.31,-22.53,0,*79
1501351639.59,38175,22.19,74378.8,5.57,-22.07,-22.37,0,*71
1501351640.84,38176,22.19,74376.8,5.57,-22.21,-22.53,0,*74
1501351642.07,38177,22.19,74382.0,5.59,-22.17,-22.37,0,*7C
1501351643.29,38178,22.19,74382.5,5.59,-22.21,-22.53,0,*74
1501351644.52,38179,22.19,74376.0,5.59,-22.17,-22.53,0,*70
1501351645.75,38180,22.19,74376.5,5.59,-22.21,-22.53,0,*73
1501351647.0,38181,22.19,74374.5,5.57,-22.31,-22.67,0,*7A
1501351648.2,38182,22.19,74374.0,5.59,-22.53,-22.83,0,*79
1501351649.42,38183,22.19,74372.3,5.57,-22.67,-22.87,0,*75
1501351650.67,38184,22.19,74368.8,5.59,-22.77,-23.03,0,*70
1501351651.89,38185,22.19,74374.5,5.57,-22.67,-22.87,0,*73
1501351653.11,38186,22.19,74366.5,5.57,-22.67,-22.97,0,*71
1501351654.31,38187,22.19,74368.3,5.59,-22.67,-22.87,0,*7F
1501351655.53,38188,22.25,74370.5,5.57,-22.67,-22.87,0,*7E
1501351656.75,38189,22.19,74362.0,5.57,-22.67,-22.97,0,*7E
1501351657.98,38190,22.19,74362.5,5.59,-22.77,-22.97,0,*79
1501351659.21,38191,22.19,74366.5,5.59,-22.83,-23.03,0,*7F
1501351660.46,38192,22.19,74368.3,5.57,-22.83,-23.03,0,*72
1501351661.7,38193,22.19,74370.5,5.57,-22.83,-23.03,0,*73
1501351662.93,38194,22.19,74370.5,5.57,-22.83,-22.97,0,*78
1501351664.18,38195,22.19,74376.5,5.57,-22.77,-22.87,0,*73
1501351665.43,38196,22.25,74380.8,5.57,-22.53,-22.77,0,*79
1501351666.68,38197,22.19,74376.8,5.57,-22.17,-22.53,0,*7E
1501351667.93,38198,22.19,74382.0,5.57,-22.03,-22.31,0,*70
1501351669.14,38199,22.19,74378.0,5.57,-22.07,-22.07,0,*70
1501351670.41,38200,22.19,74378.3,5.57,-22.21,-22.21,0,*73
1501351671.6,38201,22.19,74380.8,5.53,-22.37,-22.67,0,*73
1501351672.8,38202,22.19,74382.0,5.53,-22.37,-22.67,0,*70
1501351674.01,38203,22.19,74386.3,5.53,-22.37,-22.73,0,*74
1501351675.21,38204,22.19,74390.8,5.53,-22.57,-22.83,0,*7A
1501351676.41,38205,22.19,74386.5,5.53,-22.57,-22.93,0,*7A
1501351677.63,38206,22.19,74386.0,5.53,-22.21,-22.53,0,*74
1501351678.88,38207,22.19,74382.8,5.51,-21.97,-22.27,0,*7A
1501351680.11,38208,22.19,74380.8,5.53,-21.97,-22.21,0,*71
1501351681.33,38209,22.19,74368.8,5.53,-21.97,-22.27,0,*76
1501351682.52,38210,22.25,74376.5,5.53,-22.11,-22.41,0,*73
1501351683.77,38211,22.19,74374.8,5.57,-22.31,-22.63,0,*74
1501351685.01,38212,22.19,74376.5,5.57,-22.21,-22.53,0,*75
1501351686.24,38213,22.19,74378.0,5.57,-22.37,-22.63,0,*70
1501351687.44,38214,22.19,74376.5,5.59,-22.37,-22.63,0,*79
1501351688.7,38215,22.19,74376.5,5.59,-22.17,-22.47,0,*7C
1501351689.95,38216,22.19,74380.3,5.57,-21.87,-22.07,0,*7F
1501351691.2,38217,22.19,74380.5,5.57,-21.83,-22.03,0,*7E
1501351692.45,38218,22.19,74378.8,5.57,-21.73,-21.83,0,*75
1501351693.72,38219,22.19,74382.3,5.57,-21.57,-21.83,0,*72
1501351694.99,38220,22.19,74378.3,5.61,-21.53,-21.67,0,*73
1501351696.23,38221,22.19,74374.3,5.61,-21.39,-21.53,0,*79
1501351697.45,38222,22.19,74376.8,5.61,-21.09,-21.17,0,*79
1501351698.69,38223,22.19,74380.5,5.61,-21.33,-21.47,0,*74